Content
SEND FEEDBACK

Daily
Averages
Monthly
Summary
United States of America

MILAN, MICHIGAN


Home > North America > United States > Michigan
Elevation: 660 feet     Latitude: 42 05N     Longitude: 083 35W

WEATHER
 
SELECT A DAY
Number of Records: 202,512;   Date Range: 1/1/95 - 7/22/14
 
SHARE

PRINT THIS DATA

[ ← Previous Day ]
WEATHER ALMANAC - FEBRUARY 18, 2013
[ Next Day → ]
[ °C ]   °F
Weather ElementAverageHighLow
Temperature35.1 °F50 °F (10:53 pm)17.1 °F (1:53 am)
Dewpoint20.8 °F34 °F (10:53 pm)7 °F (1:53 am)
Humidity57 %71 % (5:53 am)40 % (1:53 pm)
Barometer29.95 in30.22 in (1:53 am)29.62 in (11:53 pm)
Wind Speed11.2 mph16.1 mph (9:53 am)
Weather ElementAverage
Visibility10 mi
Wind DirectionSSE (152.6 °)

Weather ElementTotal
Precipitation---
Heating Degree Days31.5 (Base 65)
Averaged from 23 records on February 18, 2013
WEATHER CONDITIONS BREAKOUT
WIND DIRECTION BREAKOUT
WEATHER BY HOUR - FEBRUARY 18, 2013
[ °C ]   °F
Local TimeTemperatureDewpointHumidityBarometerVisibilityWind DirectionWind SpeedGust SpeedPrecipitationEventsConditions
1:53 AM17.1 °F7.0 °F65 %30.22 in10.0 miSE (140°)4.6 mphClear
2:53 AM18.0 °F9.0 °F68 %30.22 in10.0 miSSE (160°)5.8 mphClear
3:53 AM19.9 °F10.9 °F68 %30.20 in10.0 miSSE (160°)5.8 mphClear
4:53 AM21.0 °F12.0 °F68 %30.18 in10.0 miSSE (160°)9.2 mphPartly Cloudy
5:53 AM19.9 °F12.0 °F71 %30.16 in10.0 miSE (140°)5.8 mphScattered Clouds
6:53 AM23.0 °F12.9 °F65 %30.14 in10.0 miSSE (150°)9.2 mphMostly Cloudy
7:53 AM24.1 °F12.9 °F62 %30.12 in10.0 miSSE (150°)11.5 mphOvercast
8:53 AM27.0 °F14.0 °F58 %30.09 in10.0 miSSE (150°)11.5 mphClear
9:53 AM30.0 °F16.0 °F56 %30.05 in10.0 miSE (140°)16.1 mphClear
10:53 AM33.1 °F15.1 °F48 %30.03 in10.0 miSE (140°)13.8 mphClear
11:53 AM35.1 °F17.1 °F48 %29.99 in10.0 miSSE (160°)15.0 mphClear
12:53 PM39.0 °F19.0 °F45 %29.95 in10.0 miSSE (160°)12.7 mphClear
1:53 PM44.1 °F21.0 °F40 %29.91 in10.0 miSE (140°)12.7 mphClear
2:53 PM45.0 °F23.0 °F42 %29.88 in10.0 miSouth (180°)13.8 mphClear
3:53 PM45.0 °F25.0 °F46 %29.84 in10.0 miSSE (150°)13.8 mphClear
4:53 PM45.0 °F28.0 °F52 %29.81 in10.0 miSE (140°)13.8 mphClear
5:53 PM44.1 °F28.9 °F55 %29.78 in10.0 miSE (140°)11.5 mphOvercast
6:53 PM43.0 °F32.0 °F65 %29.78 in10.0 miSSE (150°)9.2 mph0.00 inOvercast
7:53 PM44.1 °F33.1 °F65 %29.76 in10.0 miSSE (150°)11.5 mph0.00 inOvercast
8:53 PM46.0 °F30.9 °F56 %29.71 in10.0 miSSE (150°)13.8 mphOvercast
9:53 PM46.9 °F32.0 °F56 %29.68 in10.0 miSouth (170°)12.7 mphOvercast
10:53 PM50.0 °F34.0 °F54 %29.65 in10.0 miSouth (170°)11.5 mphOvercast
11:53 PM46.9 °F33.1 °F59 %29.62 in10.0 miSSE (160°)12.7 mphOvercast
Hourly data recorded from KYIP, located miles away from Milan, Michigan







STORIES FROM OUR PARTNERS